Location: Follega
(52.8850°N, 5.7362°E)
Time: 13:11:43
(UTC+00:00)

Cosmos 1340 Rocket - Pass Details

Date: 01 June 2020
Orbit: 530 x 558 km, 81.2° (Epoch: 11 July)

Event Time Altitude Azimuth Distance (km) Brightness Sun altitude
Rises 21:53:31 0° 352° (N) 2,741 8.1 -11.7°
Reaches altitude 10° 21:55:49 10° 0° (N) 1,846 6.6 -11.9°
Maximum altitude 21:59:37 38° 69° (ENE) 869 3.8 -12.1°
Enters shadow 22:02:27 16° 132° (SE) 1,491 4.5 -12.3°
